TimeEDT,TemperatureF,Dew PointF,Humidity,Sea Level PressureIn,VisibilityMPH,Wind Direction,Wind SpeedMPH,Gust SpeedMPH,PrecipitationIn,Events,Conditions,WindDirDegrees,DateUTC
12:53 AM,60.1,55.9,86,30.19,7.0,Calm,Calm,-,N/A,,Clear,0,2013-08-18 04:53:00
1:53 AM,59.0,55.0,87,30.19,7.0,Calm,Calm,-,N/A,,Clear,0,2013-08-18 05:53:00
2:53 AM,59.0,55.0,87,30.19,9.0,Calm,Calm,-,N/A,,Clear,0,2013-08-18 06:53:00
3:53 AM,59.0,55.0,87,30.18,7.0,Calm,Calm,-,N/A,,Clear,0,2013-08-18 07:53:00
4:53 AM,60.1,57.0,90,30.18,6.0,Calm,Calm,-,N/A,,Overcast,0,2013-08-18 08:53:00
5:53 AM,61.0,57.0,87,30.19,8.0,Calm,Calm,-,N/A,,Overcast,0,2013-08-18 09:53:00
6:53 AM,62.1,57.9,86,30.19,9.0,Calm,Calm,-,N/A,,Overcast,0,2013-08-18 10:53:00
7:53 AM,63.0,57.9,84,30.22,8.0,Calm,Calm,-,N/A,,Overcast,0,2013-08-18 11:53:00
8:53 AM,66.0,59.0,78,30.22,10.0,Calm,Calm,-,N/A,,Mostly Cloudy,0,2013-08-18 12:53:00
9:53 AM,68.0,60.1,76,30.22,10.0,SE,3.5,-,N/A,,Overcast,130,2013-08-18 13:53:00
10:53 AM,71.1,61.0,70,30.22,10.0,Calm,Calm,-,N/A,,Overcast,0,2013-08-18 14:53:00
11:53 AM,70.0,61.0,73,30.23,10.0,Calm,Calm,-,N/A,,Overcast,0,2013-08-18 15:53:00
12:53 PM,71.1,63.0,75,30.22,10.0,Variable,3.5,-,N/A,,Overcast,0,2013-08-18 16:53:00
1:53 PM,72.0,63.0,73,30.21,10.0,Calm,Calm,-,N/A,,Overcast,0,2013-08-18 17:53:00
2:53 PM,72.0,63.0,73,30.20,10.0,SSE,4.6,-,N/A,,Overcast,150,2013-08-18 18:53:00
3:46 PM,71.6,62.6,73,30.19,10.0,SSE,5.8,-,N/A,,Overcast,160,2013-08-18 19:46:00
3:53 PM,71.1,63.0,75,30.19,10.0,SSE,3.5,-,N/A,,Overcast,150,2013-08-18 19:53:00
4:53 PM,72.0,63.0,73,30.17,10.0,South,5.8,-,N/A,,Overcast,170,2013-08-18 20:53:00
5:53 PM,71.1,62.1,73,30.17,10.0,South,5.8,-,N/A,,Overcast,190,2013-08-18 21:53:00
6:53 PM,71.1,63.0,75,30.16,10.0,Calm,Calm,-,N/A,,Overcast,0,2013-08-18 22:53:00
7:53 PM,70.0,63.0,78,30.15,10.0,SE,3.5,-,N/A,,Overcast,140,2013-08-18 23:53:00
8:09 PM,69.8,62.6,78,30.16,10.0,Calm,Calm,-,N/A,,Overcast,0,2013-08-19 00:09:00
8:53 PM,69.1,63.0,81,30.14,10.0,South,3.5,-,N/A,,Mostly Cloudy,170,2013-08-19 00:53:00
9:53 PM,68.0,64.0,87,30.17,10.0,SE,3.5,-,N/A,,Mostly Cloudy,130,2013-08-19 01:53:00
10:20 PM,68.0,64.4,88,30.18,10.0,Calm,Calm,-,N/A,,Overcast,0,2013-08-19 02:20:00
10:53 PM,68.0,64.0,87,30.17,10.0,Calm,Calm,-,0.00,Rain,Light Rain,0,2013-08-19 02:53:00
11:53 PM,68.0,64.0,87,30.16,10.0,Calm,Calm,-,0.00,,Overcast,0,2013-08-19 03:53:00